Weather observations for the past three days for
Calhoun Tom B. David Field Airport
Imperial (Metric)
Date Time (edt) Wind (mph) Vis. (mi.) Weather Sky Cond. Temperature (ºF) Relative Humidity Wind Chill (°F) Heat Index (°F) Pressure Precipitation (in)
Air Dwpt 6 hour altimeter (in) sea level (mb) 1 hr 3 hr 6 hr
Max. Min.
16 14:55 SW 5 10.00 NULL NULL 78.8 77 94% 83 30.01 0.0
16 14:35 SW 7 10.00 NULL NULL 77 75.2 94% 78 30.01 0.0
16 14:15 S 7 10.00 NULL NULL 75.2 75.2 100% 73 30.02 0.0
16 13:55 Calm 10.00 NULL NULL 75.2 75.2 89.4 73.6 100% 73 30.04 0.0 0.01
16 13:35 W 10 3.00 Fog/Mist NULL 77 75.2 94% 78 30.04 0.0
16 13:15 W 17 G 28 10.00 NULL NULL 84.2 75.2 74% 92 30.03 0.0
16 12:55 Vrbl 6 10.00 Thunderstorm in Vicinity NULL 89.6 75.2 63% 100 30.02 0.0
16 12:35 S 6 10.00 NULL NULL 87.8 73.4 62% 96 30.01 0.0
16 12:15 SW 6 10.00 NULL NULL 87.8 75.2 66% 98 30.03 0.0
16 11:55 Calm 10.00 NULL NULL 86 75.2 70% 95 30.03 0.0
16 11:35 S 7 10.00 NULL NULL 86 73.4 66% 93 30.04 0.0
16 11:15 Calm 10.00 NULL NULL 84.2 73.4 70% 91 30.04 0.0
16 10:55 Calm 10.00 NULL NULL 82.4 73.4 74% 88 30.04 0.0
16 10:35 Calm 10.00 NULL NULL 82.4 73.4 74% 88 30.06 0.0
16 10:15 N 6 10.00 NULL NULL 80.6 73.4 79% 85 30.06 0.0
16 09:55 Vrbl 5 10.00 NULL NULL 80.6 75.2 84% 86 30.06 0.0
16 09:35 Vrbl 5 10.00 NULL NULL 78.8 75.2 89% 82 30.05 0.0
16 09:15 SW 6 10.00 NULL NULL 77 73.4 89% 78 30.05 0.0
16 08:55 SW 8 10.00 NULL NULL 77 73.4 89% 78 30.04 0.0
16 08:35 SW 9 10.00 NULL NULL 77 75.2 94% 78 30.04 0.0
16 08:15 SW 7 10.00 NULL NULL 75.2 73.4 94% 74 30.03 0.0
16 07:55 Calm 10.00 NULL NULL 73.4 73.4 74.5 72 100% 30.03 0.0
16 07:35 SW 3 10.00 NULL NULL 73.4 73.4 100% 30.02 0.0
16 07:15 S 7 10.00 NULL NULL 71.6 71.6 100% 30.01 0.0
16 06:55 Calm 10.00 NULL NULL 71.6 71.6 100% 30.01 0.0
16 06:35 S 5 10.00 NULL NULL 71.6 71.6 100% 30.01 0.0
16 06:15 Calm 10.00 NULL NULL 71.6 71.6 100% 30 0.0
16 05:55 Calm 10.00 NULL NULL 73.4 73.4 100% 30.01 0.0
16 05:35 S 3 10.00 NULL NULL 73.4 73.4 100% 30.01 0.0
16 05:15 Calm 10.00 NULL NULL 73.4 73.4 100% 30.01 0.0
16 04:55 Calm 10.00 NULL NULL 73.4 73.4 100% 30.01 0.0
16 04:35 Calm 10.00 NULL NULL 73.4 73.4 100% 30.01 0.0
16 04:15 Calm 10.00 NULL NULL 73.4 73.4 100% 30.01 0.0
16 03:55 Calm 10.00 NULL NULL 73.4 73.4 100% 30 0.0
16 03:35 Calm 10.00 NULL NULL 73.4 73.4 100% 30.01 0.0
16 03:15 Calm 10.00 NULL NULL 73.4 73.4 100% 30.01 0.0
16 02:55 Calm 10.00 NULL NULL 73.4 73.4 100% 30.01 0.0
16 02:35 Calm 10.00 NULL NULL 73.4 73.4 100% 30.01 0.0
16 02:15 Calm 10.00 NULL NULL 73.4 73.4 100% 30.01 0.0
16 01:55 S 5 10.00 NULL NULL 73.4 73.4 77 73.6 100% 30.01 0.0
16 01:35 SW 3 10.00 NULL NULL 73.4 73.4 100% 30.01 0.0
16 01:15 Calm 10.00 NULL NULL 73.4 73.4 100% 30 0.0
16 00:55 Calm 10.00 NULL NULL 75.2 73.4 94% 74 30.01 0.0
16 00:35 Calm 10.00 NULL NULL 75.2 73.4 94% 74 30.01 0.0
16 00:15 Calm 10.00 NULL NULL 75.2 75.2 100% 73 30 0.0
15 23:55 Calm 10.00 NULL NULL 75.2 75.2 100% 73 30.01 0.0
15 23:35 Calm 10.00 NULL NULL 75.2 75.2 100% 73 30.01 0.0
15 23:15 Calm 10.00 NULL NULL 75.2 75.2 100% 73 30.01 0.0
15 22:55 SW 5 10.00 NULL NULL 75.2 75.2 100% 73 30.01 0.0
15 22:35 Calm 10.00 NULL NULL 75.2 75.2 100% 73 30.01 0.0
15 22:15 Calm 10.00 NULL NULL 75.2 75.2 100% 73 30 0.0
15 21:55 Calm 10.00 NULL NULL 75.2 75.2 100% 73 30 0.0
15 21:35 Calm 10.00 NULL NULL 75.2 75.2 100% 73 30 0.0
15 21:15 W 3 10.00 NULL NULL 75.2 75.2 100% 73 30.01 0.0
15 20:55 Calm 10.00 NULL NULL 75.2 75.2 100% 73 29.99 0.0
15 20:35 Calm 10.00 NULL NULL 77 75.2 94% 78 29.99 0.0
15 20:15 Calm 10.00 NULL NULL 77 75.2 94% 78 29.99 0.0
15 19:55 S 6 10.00 NULL NULL 77 75.2 95.5 76.6 94% 78 29.99 0.0 0.01
15 19:35 Calm 8.00 NULL NULL 78.8 75.2 89% 82 29.99 0.0
15 19:15 Vrbl 3 10.00 Thunderstorm NULL 78.8 73.4 84% 82 29.98 0.0
15 18:55 E 5 10.00 Thunderstorm in Vicinity NULL 78.8 73.4 84% 82 29.99 0.0
15 18:35 SW 9 10.00 Thunderstorm in Vicinity NULL 80.6 71.6 74% 85 29.99 0.0
15 18:15 SW 13 G 23 10.00 Thunderstorm NULL 82.4 71.6 70% 87 29.98 0.0
15 17:55 W 13 G 24 10.00 Thunderstorm in Vicinity NULL 86 69.8 59% 91 29.97 0.0
15 17:35 SW 5 10.00 Thunderstorm in Vicinity NULL 93.2 69.8 47% 99 29.96 0.0
15 17:15 Vrbl 3 10.00 Thunderstorm in Vicinity NULL 95 69.8 44% 101 29.96 0.0
15 16:55 Calm 10.00 NULL NULL 95 69.8 44% 101 29.96 0.0
15 16:35 SW 5 10.00 NULL NULL 93.2 69.8 47% 99 29.97 0.0
15 16:15 SW 6 10.00 NULL NULL 93.2 69.8 47% 99 29.97 0.0
15 15:55 SW 7 10.00 NULL NULL 93.2 69.8 47% 99 29.98 0.0
15 15:35 S 7 10.00 NULL NULL 93.2 68 44% 98 29.99 0.0
15 15:15 Vrbl 6 10.00 NULL NULL 93.2 71.6 50% 101 30 0.0
15 14:55 Vrbl 5 10.00 NULL NULL 93.2 69.8 47% 99 30.01 0.0
15 14:35 SW 5 10.00 NULL NULL 91.4 68 46% 96 30.02 0.0
15 14:15 SW 6 10.00 NULL NULL 93.2 69.8 47% 99 30.03 0.0
15 13:55 SW 3 10.00 NULL NULL 91.4 75.2 91 77 59% 103 30.04 0.0
15 13:35 Calm 10.00 NULL NULL 89.6 73.4 59% 98 30.05 0.0
15 13:15 S 3 10.00 NULL NULL 89.6 73.4 59% 98 30.06 0.0
15 12:55 Calm 10.00 NULL NULL 87.8 73.4 62% 96 30.06 0.0
15 12:35 Calm 10.00 NULL NULL 87.8 73.4 62% 96 30.07 0.0
15 12:15 Calm 10.00 NULL NULL 86 73.4 66% 93 30.08 0.0
15 11:55 Calm 10.00 NULL NULL 86 75.2 70% 95 30.08 0.0
15 11:35 Calm 10.00 NULL NULL 86 75.2 70% 95 30.08 0.0
15 11:15 Calm 10.00 NULL NULL 82.4 75.2 79% 89 30.09 0.0
15 10:55 Calm 10.00 NULL NULL 82.4 75.2 79% 89 30.09 0.0
15 10:35 SW 6 10.00 NULL NULL 82.4 75.2 79% 89 30.09 0.0
15 10:15 Calm 10.00 NULL NULL 82.4 75.2 79% 89 30.09 0.0
15 09:55 S 5 10.00 NULL NULL 82.4 75.2 79% 89 30.09 0.0
15 09:35 S 3 10.00 NULL NULL 80.6 75.2 84% 86 30.09 0.0
15 09:15 Calm 10.00 NULL NULL 80.6 75.2 84% 86 30.1 0.0
15 08:55 Calm 10.00 NULL NULL 80.6 75.2 84% 86 30.09 0.0
15 08:35 Calm 10.00 NULL NULL 78.8 73.4 84% 82 30.09 0.0
15 08:15 Calm 10.00 NULL NULL 78.8 75.2 89% 82 30.08 0.0
15 07:55 Calm 10.00 NULL NULL 77 75.2 78.3 76.1 94% 78 30.08 0.0
15 07:35 Calm 10.00 NULL NULL 77 75.2 94% 78 30.07 0.0
15 07:15 Calm 10.00 NULL NULL 77 73.4 89% 78 30.06 0.0
15 06:55 Calm 10.00 NULL NULL 77 73.4 89% 78 30.06 0.0
15 06:35 Calm 10.00 NULL NULL 77 73.4 89% 78 30.05 0.0
15 06:15 Calm 10.00 NULL NULL 77 73.4 89% 78 30.05 0.0
15 05:55 Calm 10.00 NULL NULL 77 73.4 89% 78 30.05 0.0
15 05:35 Calm 10.00 NULL NULL 77 73.4 89% 78 30.05 0.0
15 05:15 S 3 10.00 NULL NULL 77 73.4 89% 78 30.04 0.0
15 04:55 Calm 10.00 NULL NULL 77 73.4 89% 78 30.05 0.0
15 04:35 Calm 10.00 NULL NULL 77 73.4 89% 78 30.04 0.0
15 04:15 Calm 10.00 NULL NULL 77 73.4 89% 78 30.04 0.0
15 03:55 Calm 10.00 NULL NULL 78.8 73.4 84% 82 30.04 0.0
15 03:35 Calm 10.00 NULL NULL 77 73.4 89% 78 30.04 0.0
15 03:15 S 3 10.00 NULL NULL 77 73.4 89% 78 30.04 0.0
15 02:55 S 5 10.00 NULL NULL 77 73.4 89% 78 30.05 0.0
15 02:35 S 6 10.00 NULL NULL 77 75.2 94% 78 30.05 0.0
15 02:15 S 5 10.00 NULL NULL 77 75.2 94% 78 30.06 0.0
15 01:55 Calm 10.00 NULL NULL 77 75.2 91.4 77.2 94% 78 30.06 0.0
15 01:35 Calm 10.00 NULL NULL 78.8 75.2 89% 82 30.06 0.0
15 01:15 Calm 10.00 NULL NULL 78.8 75.2 89% 82 30.06 0.0
15 00:55 Calm 10.00 NULL NULL 78.8 75.2 89% 82 30.06 0.0
15 00:35 Calm 10.00 NULL NULL 80.6 75.2 84% 86 30.07 0.0
15 00:15 S 3 10.00 NULL NULL 80.6 75.2 84% 86 30.07 0.0
14 23:55 Calm 10.00 NULL NULL 80.6 75.2 84% 86 30.07 0.0
14 23:35 Calm 10.00 NULL NULL 80.6 75.2 84% 86 30.07 0.0
14 23:15 S 3 10.00 NULL NULL 80.6 75.2 84% 86 30.07 0.0
14 22:55 Calm 10.00 NULL NULL 80.6 75.2 84% 86 30.07 0.0
14 22:35 S 3 10.00 NULL NULL 80.6 77 89% 87 30.06 0.0
14 22:15 Calm 10.00 NULL NULL 82.4 75.2 79% 89 30.06 0.0
14 21:55 Calm 10.00 NULL NULL 82.4 75.2 79% 89 30.05 0.0
14 21:35 Calm 10.00 NULL NULL 82.4 75.2 79% 89 30.05 0.0
14 21:15 Calm 10.00 NULL NULL 82.4 77 84% 91 30.05 0.0
14 20:55 S 5 10.00 NULL NULL 84.2 77 79% 94 30.05 0.0
14 20:35 Calm 10.00 NULL NULL 86 77 75% 97 30.05 0.0
14 20:15 Calm 10.00 NULL NULL 87.8 75.2 66% 98 30.05 0.0
14 19:55 Calm 10.00 NULL NULL 91.4 73.4 98.2 88.5 56% 100 30.05 0.0
14 19:35 Calm 10.00 NULL NULL 93.2 69.8 47% 99 30.05 0.0
14 19:15 Calm 10.00 NULL NULL 93.2 69.8 47% 99 30.05 0.0
14 18:55 NW 6 10.00 NULL NULL 93.2 69.8 47% 99 30.05 0.0
14 18:35 NW 6 10.00 NULL NULL 93.2 71.6 50% 101 30.05 0.0
14 18:15 Calm 10.00 NULL NULL 91.4 69.8 49% 97 30.05 0.0
14 17:55 Calm 10.00 NULL NULL 89.6 69.8 52% 95 30.05 0.0
14 17:35 Calm 10.00 NULL NULL 89.6 69.8 52% 95 30.05 0.0
14 17:15 Calm 10.00 NULL NULL 89.6 69.8 52% 95 30.06 0.0
14 16:55 Calm 10.00 NULL NULL 89.6 69.8 52% 95 30.07 0.0
14 16:35 NW 7 10.00 NULL NULL 89.6 69.8 52% 95 30.08 0.0
14 16:15 NW 9 G 16 10.00 NULL NULL 89.6 68 49% 93 30.09 0.0
14 15:55 N 9 10.00 NULL NULL 93.2 68 44% 98 30.09 0.0
14 15:35 Vrbl 6 10.00 NULL NULL 96.8 64.4 34% 99 30.09 0.0
14 15:15 Vrbl 3 10.00 NULL NULL 96.8 62.6 32% 98 30.1 0.0
14 14:55 W 6 10.00 NULL NULL 96.8 62.6 32% 98 30.09 0.0
14 14:35 W 7 10.00 NULL NULL 96.8 64.4 34% 99 30.1 0.0
14 14:15 NW 6 10.00 NULL NULL 96.8 64.4 34% 99 30.11 0.0
14 13:55 SW 8 10.00 NULL NULL 95 66.2 95.7 72.7 39% 98 30.12 0.0
14 13:35 Calm 10.00 NULL NULL 95 66.2 39% 98 30.13 0.0
14 13:15 Vrbl 6 10.00 NULL NULL 93.2 69.8 47% 99 30.14 0.0
14 12:55 SW 5 10.00 NULL NULL 93.2 69.8 47% 99 30.14 0.0
14 12:35 Calm 10.00 NULL NULL 91.4 69.8 49% 97 30.15 0.0
14 12:15 Calm 10.00 NULL NULL 91.4 69.8 49% 97 30.15 0.0
14 11:55 W 5 10.00 NULL NULL 89.6 71.6 55% 96 30.16 0.0
14 11:35 Calm 10.00 NULL NULL 89.6 73.4 59% 98 30.16 0.0
14 11:15 Calm 10.00 NULL NULL 87.8 73.4 62% 96 30.16 0.0
14 10:55 Calm 10.00 NULL NULL 86 71.6 62% 92 30.16 0.0
14 10:35 Calm 10.00 NULL NULL 86 71.6 62% 92 30.16 0.0
14 10:15 Calm 10.00 NULL NULL 84.2 73.4 70% 91 30.16 0.0
14 09:55 Calm 10.00 NULL NULL 82.4 73.4 74% 88 30.16 0.0
14 09:35 Calm 10.00 NULL NULL 82.4 73.4 74% 88 30.16 0.0
14 09:15 Calm 10.00 NULL NULL 80.6 73.4 79% 85 30.17 0.0
14 08:55 Calm 10.00 NULL NULL 78.8 73.4 84% 82 30.17 0.0
14 08:35 Calm 7.00 Haze NULL 77 71.6 83% 78 30.17 0.0
14 08:15 Calm 4.00 Fog/Mist NULL 75.2 71.6 89% 75 30.17 0.0
14 07:55 Calm 10.00 NULL NULL 73.4 71.6 74.1 70 94% 30.16 0.0
14 07:35 Calm 10.00 NULL NULL 71.6 71.6 100% 30.15 0.0
14 07:15 Calm 10.00 NULL NULL 71.6 69.8 94% 30.16 0.0
14 06:55 Calm 10.00 NULL NULL 69.8 69.8 100% 30.15 0.0
14 06:35 Calm 10.00 NULL NULL 69.8 69.8 100% 30.15 0.0
14 06:15 Calm 10.00 NULL NULL 69.8 69.8 100% 30.14 0.0
14 05:55 Calm 10.00 NULL NULL 69.8 69.8 100% 30.14 0.0
14 05:35 Calm 10.00 NULL NULL 71.6 69.8 94% 30.14 0.0
14 05:15 Calm 10.00 NULL NULL 71.6 69.8 94% 30.13 0.0
14 04:55 Calm 10.00 NULL NULL 71.6 69.8 94% 30.13 0.0
14 04:35 Calm 10.00 NULL NULL 71.6 71.6 100% 30.13 0.0
14 04:15 Calm 10.00 NULL NULL 71.6 69.8 94% 30.13 0.0
14 03:55 Calm 10.00 NULL NULL 71.6 69.8 94% 30.13 0.0
14 03:35 Calm 10.00 NULL NULL 71.6 71.6 100% 30.13 0.0
14 03:15 Calm 10.00 NULL NULL 73.4 71.6 94% 30.14 0.0
14 02:55 Calm 10.00 NULL NULL 73.4 71.6 94% 30.14 0.0
14 02:35 Calm 10.00 NULL NULL 71.6 71.6 100% 30.14 0.0
14 02:15 Calm 10.00 NULL NULL 73.4 71.6 94% 30.15 0.0
14 01:55 Calm 10.00 NULL NULL 73.4 71.6 88.3 73.2 94% 30.15 0.0
14 01:35 Calm 10.00 NULL NULL 73.4 71.6 94% 30.16 0.0
14 01:15 Calm 10.00 NULL NULL 75.2 71.6 89% 75 30.16 0.0
14 00:55 Calm 10.00 NULL NULL 75.2 71.6 89% 75 30.16 0.0
14 00:35 Calm 10.00 NULL NULL 75.2 71.6 89% 75 30.17 0.0
14 00:15 Calm 10.00 NULL NULL 75.2 71.6 89% 75 30.17 0.0
13 23:55 Calm 10.00 NULL NULL 77 71.6 83% 78 30.16 0.0
13 23:35 Calm 10.00 NULL NULL 77 71.6 83% 78 30.16 0.0
13 23:15 Calm 10.00 NULL NULL 77 71.6 83% 78 30.16 0.0
13 22:55 Calm 5.00 Haze NULL 78.8 71.6 79% 82 30.15 0.0
13 22:35 Calm 10.00 NULL NULL 78.8 71.6 79% 82 30.15 0.0
13 22:15 Calm 10.00 NULL NULL 80.6 71.6 74% 85 30.15 0.0
13 21:55 Calm 10.00 NULL NULL 80.6 71.6 74% 85 30.14 0.0
13 21:35 Calm 10.00 NULL NULL 82.4 69.8 66% 86 30.14 0.0
13 21:15 Calm 10.00 NULL NULL 84.2 69.8 62% 88 30.14 0.0
13 20:55 Calm 10.00 NULL NULL 84.2 69.8 62% 88 30.14 0.0
13 20:35 Calm 10.00 NULL NULL 86 66.2 52% 88 30.14 0.0
13 20:15 Calm 10.00 NULL NULL 87.8 68 52% 91 30.14 0.0
13 19:35 Vrbl 7 10.00 NULL NULL 87.8 68 52% 91 30.14 0.0
13 19:15 N 8 G 17 10.00 NULL NULL 87.8 68 52% 91 30.13 0.0
13 18:55 W 5 10.00 NULL NULL 95 64.4 36% 97 30.12 0.0
13 18:35 NW 3 10.00 NULL NULL 95 64.4 36% 97 30.12 0.0
13 18:15 W 5 10.00 NULL NULL 96.8 62.6 32% 98 30.11 0.0
13 17:55 SW 6 10.00 NULL NULL 95 64.4 36% 97 30.12 0.0
13 17:35 Calm 10.00 NULL NULL 96.8 64.4 34% 99 30.12 0.0
13 17:15 Calm 10.00 NULL NULL 96.8 62.6 32% 98 30.12 0.0
13 16:55 Vrbl 5 10.00 NULL NULL 96.8 62.6 32% 98 30.13 0.0
13 16:35 W 3 10.00 NULL NULL 96.8 64.4 34% 99 30.13 0.0
13 16:15 NW 8 10.00 NULL NULL 96.8 64.4 34% 99 30.14 0.0
13 15:55 Calm 10.00 NULL NULL 95 66.2 39% 98 30.14 0.0
13 15:35 Calm 10.00 NULL NULL 96.8 66.2 37% 100 30.14 0.0
13 15:15 Calm 10.00 NULL NULL 95 62.6 34% 96 30.15 0.0
Date Time (edt) Wind (mph) Vis. (mi.) Weather Sky Cond. Air Dwpt Max. Min. Relative Humidity Wind Chill (°F) Heat Index (°F) altimeter (in) sea level (mb) 1 hr 3 hr 6 hr
6 hour
Temperature (ºF) Pressure Precipitation (in)